| time (UTC) | temp F | wind direction | speed MPH | gust MPH | rain 1hr in | rain 24hr in | rain mn in | humidity % | barometer mb |
| 20260507083048 | 47 | 226 | 0.0 | 1.0 | 0.00 | 0.00 | 0.00 | 96 | 1006.6 |
| 20260507081543 | 47 | 187 | 0.0 | 0.0 | 0.00 | 0.00 | 0.00 | 95 | 1006.6 |
| 20260507080024 | 48 | 184 | 0.0 | 1.0 | 0.00 | 0.00 | 0.00 | 95 | 1006.5 |
| 20260507074522 | 48 | 132 | 0.0 | 0.0 | 0.00 | 0.00 | 0.00 | 94 | 1006.2 |
| 20260507073001 | 48 | 133 | 0.0 | 0.0 | 0.00 | 0.00 | 0.00 | 93 | 1006.3 |
| 20260507071601 | 49 | 218 | 0.0 | 2.0 | 0.00 | 0.00 | 0.00 | 92 | 1006.1 |
| 20260507070043 | 49 | 19 | 0.0 | 3.0 | 0.00 | 0.00 | 0.00 | 90 | 1006.0 |
| 20260507064539 | 49 | 26 | 0.0 | 3.0 | 0.00 | 0.00 | 0.00 | 90 | 1005.5 |
| 20260507063020 | 49 | 210 | 0.0 | 3.0 | 0.00 | 0.00 | 0.00 | 90 | 1005.5 |
| 20260507061519 | 50 | 332 | 0.0 | 4.0 | 0.00 | 0.00 | 0.00 | 90 | 1005.6 |
| 20260507060117 | 50 | 8 | 0.0 | 6.0 | 0.00 | 0.00 | 0.00 | 92 | 1005.8 |
| 20260507054604 | 51 | 4 | 0.0 | 1.0 | 0.00 | 0.00 | 0.00 | 95 | 1005.5 |
| 20260507053059 | 51 | 142 | 0.0 | 1.0 | 0.00 | 0.00 | 0.00 | 96 | 1005.9 |
| 20260507051537 | 52 | 204 | 0.0 | 2.0 | 0.00 | 0.00 | 0.00 | 96 | 1006.1 |
| 20260507050037 | 52 | 198 | 0.0 | 2.0 | 0.00 | 0.00 | 0.00 | 96 | 1006.0 |
| 20260507044533 | 53 | 203 | 0.0 | 1.0 | 0.00 | 0.00 | 0.00 | 96 | 1005.8 |
| 20260507043014 | 53 | 213 | 0.0 | 1.0 | 0.00 | 0.00 | 0.00 | 96 | 1005.9 |
| 20260507041554 | 54 | 100 | 0.0 | 2.0 | 0.00 | 0.00 | 0.00 | 96 | 1005.9 |
| 20260507040052 | 55 | 198 | 0.0 | 2.0 | 0.00 | 0.00 | 0.00 | 96 | 1005.8 |
| 20260507034538 | 56 | 211 | 0.0 | 3.0 | 0.00 | 0.00 | 0.00 | 97 | 1006.0 |
| 20260507033034 | 56 | 207 | 0.0 | 1.0 | 0.00 | 0.00 | 0.00 | 98 | 1005.8 |
| 20260507031516 | 57 | 214 | 0.0 | 2.0 | 0.00 | 0.00 | 0.00 | 98 | 1005.5 |
| 20260507030014 | 57 | 218 | 0.0 | 2.0 | 0.00 | 0.00 | 0.00 | 99 | 1005.4 |
| 20260507024503 | 58 | 198 | 0.0 | 3.0 | 0.00 | 0.00 | 0.00 | 99 | 1005.1 |
| 20260507023003 | 58 | 205 | 0.0 | 5.0 | 0.00 | 0.00 | 0.00 | 99 | 1005.1 |
| 20260507021501 | 58 | 160 | 0.0 | 4.0 | 0.00 | 0.00 | 0.00 | 99 | 1004.6 |
| 20260507020001 | 57 | 214 | 1.0 | 5.0 | 0.00 | 0.00 | 0.00 | 99 | 1005.0 |
| 20260507014603 | 57 | 198 | 0.0 | 3.0 | 0.00 | 0.00 | 0.00 | 99 | 1004.9 |
| 20260507013103 | 57 | 123 | 0.0 | 6.0 | 0.00 | 0.00 | 0.00 | 99 | 1005.0 |
| 20260507011600 | 57 | 208 | 0.0 | 3.0 | 0.00 | 0.00 | 0.00 | 98 | 1004.7 |
| 20260507010059 | 57 | 158 | 1.0 | 5.0 | 0.00 | 0.00 | 0.00 | 98 | 1005.0 |
| 20260507004559 | 57 | 198 | 0.0 | 5.0 | 0.00 | 0.00 | 0.00 | 98 | 1005.1 |
| 20260507003055 | 57 | 120 | 0.0 | 6.0 | 0.00 | 0.00 | 0.00 | 98 | 1005.0 |
| 20260507001541 | 57 | 203 | 0.0 | 5.0 | 0.00 | 0.00 | 0.00 | 98 | 1004.9 |
| 20260507000038 | 57 | 177 | 1.0 | 6.0 | 0.00 | 0.00 | 0.00 | 98 | 1004.8 |
| 20260506234521 | 57 | 216 | 0.0 | 5.0 | 0.00 | 0.00 | 0.00 | 98 | 1004.6 |
| 20260506233019 | 57 | 123 | 0.0 | 4.0 | 0.00 | 0.00 | 0.00 | 98 | 1004.6 |
| 20260506231502 | 57 | 210 | 0.0 | 5.0 | 0.00 | 0.00 | 0.00 | 98 | 1004.5 |
| 20260506230001 | 58 | 167 | 0.0 | 5.0 | 0.00 | 0.00 | 0.00 | 98 | 1004.4 |
| 20260506224557 | 58 | 180 | 1.0 | 8.0 | 0.00 | 0.00 | 0.00 | 97 | 1004.5 |
| 20260506223042 | 57 | 142 | 0.0 | 4.0 | 0.00 | 0.00 | 0.00 | 97 | 1004.6 |
| 20260506221525 | 57 | 87 | 0.0 | 4.0 | 0.00 | 0.00 | 0.00 | 97 | 1004.7 |
| 20260506220024 | 57 | 122 | 0.0 | 5.0 | 0.00 | 0.00 | 0.00 | 97 | 1004.6 |
| 20260506214506 | 58 | 166 | 0.0 | 5.0 | 0.00 | 0.00 | 0.00 | 97 | 1004.7 |
| 20260506213005 | 58 | 80 | 0.0 | 6.0 | 0.00 | 0.00 | 0.00 | 96 | 1004.7 |
| 20260506211546 | 58 | 189 | 1.0 | 7.0 | 0.00 | 0.00 | 0.00 | 96 | 1005.0 |
| 20260506210047 | 58 | 162 | 0.0 | 3.0 | 0.00 | 0.00 | 0.00 | 96 | 1005.0 |
| 20260506204526 | 58 | 210 | 1.0 | 9.0 | 0.00 | 0.00 | 0.00 | 95 | 1005.2 |
| 20260506203031 | 58 | 118 | 0.0 | 6.0 | 0.00 | 0.00 | 0.00 | 95 | 1005.2 |
| 20260506201507 | 58 | 217 | 1.0 | 5.0 | 0.00 | 0.00 | 0.00 | 95 | 1005.3 |
| 20260506200005 | 58 | 105 | 1.0 | 7.0 | 0.00 | 0.00 | 0.00 | 95 | 1005.4 |
| 20260506194559 | 58 | 201 | 1.0 | 10.0 | 0.00 | 0.00 | 0.00 | 94 | 1005.5 |
| 20260506193044 | 58 | 116 | 1.0 | 7.0 | 0.00 | 0.00 | 0.00 | 94 | 1005.7 |
| 20260506191534 | 59 | 224 | 0.0 | 7.0 | 0.00 | 0.00 | 0.00 | 94 | 1005.8 |
| 20260506190027 | 59 | 136 | 0.0 | 7.0 | 0.00 | 0.00 | 0.00 | 93 | 1005.8 |
| 20260506184508 | 60 | 137 | 0.0 | 9.0 | 0.00 | 0.00 | 0.00 | 91 | 1005.7 |
| 20260506183010 | 61 | 229 | 0.0 | 7.0 | 0.00 | 0.00 | 0.00 | 89 | 1006.0 |
| 20260506181548 | 62 | 238 | 0.0 | 5.0 | 0.00 | 0.00 | 0.00 | 86 | 1006.2 |
| 20260506180051 | 63 | 99 | 1.0 | 8.0 | 0.00 | 0.00 | 0.00 | 81 | 1006.4 |
| 20260506174532 | 65 | 162 | 1.0 | 6.0 | 0.00 | 0.00 | 0.00 | 76 | 1006.3 |
| 20260506173028 | 67 | 28 | 4.0 | 12.0 | 0.00 | 0.00 | 0.00 | 70 | 1006.4 |
| 20260506171513 | 69 | 131 | 1.0 | 11.0 | 0.00 | 0.00 | 0.00 | 66 | 1006.4 |
| 20260506170009 | 69 | 110 | 2.0 | 9.0 | 0.00 | 0.00 | 0.00 | 65 | 1006.3 |
| 20260506164558 | 69 | 158 | 2.0 | 11.0 | 0.00 | 0.00 | 0.00 | 64 | 1006.4 |
| 20260506163049 | 69 | 136 | 2.0 | 9.0 | 0.00 | 0.00 | 0.00 | 64 | 1006.5 |
| 20260506161530 | 69 | 217 | 0.0 | 10.0 | 0.00 | 0.00 | 0.00 | 64 | 1007.0 |
| 20260506160030 | 69 | 37 | 3.0 | 11.0 | 0.00 | 0.00 | 0.00 | 63 | 1007.0 |
| 20260506154508 | 69 | 193 | 0.0 | 11.0 | 0.00 | 0.00 | 0.00 | 65 | 1007.2 |
| 20260506153006 | 69 | 157 | 0.0 | 6.0 | 0.00 | 0.00 | 0.00 | 67 | 1007.3 |
| 20260506151548 | 68 | 212 | 2.0 | 14.0 | 0.00 | 0.00 | 0.00 | 67 | 1007.5 |
| 20260506150051 | 69 | 193 | 1.0 | 9.0 | 0.00 | 0.00 | 0.00 | 67 | 1007.7 |
| 20260506144524 | 68 | 207 | 2.0 | 11.0 | 0.00 | 0.00 | 0.00 | 70 | 1007.8 |
| 20260506143022 | 67 | 155 | 1.0 | 10.0 | 0.00 | 0.00 | 0.00 | 71 | 1007.9 |
| 20260506141502 | 66 | 131 | 1.0 | 7.0 | 0.00 | 0.00 | 0.00 | 75 | 1007.8 |
| 20260506140119 | 65 | 187 | 1.0 | 7.0 | 0.00 | 0.00 | 0.00 | 75 | 1007.7 |
| 20260506134541 | 65 | 113 | 0.0 | 5.0 | 0.00 | 0.00 | 0.00 | 78 | 1007.8 |
| 20260506133044 | 63 | 141 | 0.0 | 6.0 | 0.00 | 0.00 | 0.00 | 80 | 1007.9 |
| 20260506131517 | 62 | 125 | 2.0 | 9.0 | 0.00 | 0.00 | 0.00 | 82 | 1008.2 |
| 20260506130011 | 61 | 219 | 1.0 | 7.0 | 0.00 | 0.00 | 0.00 | 84 | 1008.5 |
| 20260506124555 | 61 | 158 | 2.0 | 8.0 | 0.00 | 0.00 | 0.00 | 85 | 1008.5 |
| 20260506123050 | 61 | 61 | 1.0 | 7.0 | 0.00 | 0.00 | 0.00 | 85 | 1008.4 |
| 20260506121530 | 59 | 113 | 1.0 | 5.0 | 0.00 | 0.00 | 0.00 | 88 | 1008.5 |
| 20260506120036 | 59 | 203 | 0.0 | 5.0 | 0.00 | 0.00 | 0.00 | 89 | 1008.5 |
| 20260506114508 | 58 | 207 | 0.0 | 5.0 | 0.00 | 0.00 | 0.00 | 90 | 1008.5 |
| 20260506113009 | 57 | 187 | 1.0 | 7.0 | 0.00 | 0.00 | 0.00 | 91 | 1008.8 |
| 20260506111551 | 57 | 197 | 0.0 | 4.0 | 0.00 | 0.00 | 0.00 | 91 | 1008.9 |
| 20260506110046 | 56 | 177 | 1.0 | 8.0 | 0.00 | 0.00 | 0.00 | 92 | 1008.8 |
| 20260506104527 | 56 | 219 | 1.0 | 5.0 | 0.00 | 0.00 | 0.00 | 93 | 1008.7 |
| 20260506103031 | 55 | 203 | 1.0 | 4.0 | 0.00 | 0.00 | 0.00 | 93 | 1008.8 |
| 20260506101509 | 55 | 154 | 0.0 | 5.0 | 0.00 | 0.00 | 0.00 | 93 | 1008.7 |
| 20260506100008 | 55 | 239 | 0.0 | 6.0 | 0.00 | 0.00 | 0.00 | 92 | 1008.7 |
| 20260506094548 | 55 | 213 | 2.0 | 8.0 | 0.00 | 0.00 | 0.00 | 92 | 1008.5 |
| 20260506093047 | 55 | 137 | 0.0 | 6.0 | 0.00 | 0.00 | 0.00 | 92 | 1008.5 |
| 20260506091529 | 56 | 231 | 0.0 | 5.0 | 0.00 | 0.00 | 0.00 | 91 | 1008.6 |
| 20260506090026 | 56 | 78 | 0.0 | 5.0 | 0.00 | 0.00 | 0.00 | 91 | 1008.6 |
| 20260506084510 | 56 | 207 | 0.0 | 6.0 | 0.00 | 0.00 | 0.00 | 90 | 1008.7 |